Find Starlink 34626

NORAD ID: 65082 Int'l Des: 2025-167 Owner: SPXS Country: US Constellation: starlink operational
LEOCIRCULAR

現在のビュー

3D地球を読み込み中...

Starlink 34626について

説明を読み込み中...

次回通過

Passes for default location (London). Set your location on the main map for personalized predictions.

高度履歴

Loading altitude history...

軌道要素

1 65082U 25167E 26149.98483352 .00031174 00000-0 72254-3 0 9995
2 65082 53.1600 5.7859 0001450 94.8021 265.3150 15.42175177 45973
Epoch: May 29, 2026 • Age: 21 hours

現在のステータス

高度 440.5 km
速度 7.65 km/s
衛星直下点 29.65°N, 38.8°W
打ち上げ日 Aug 4, 2025
運用期間 0.8 years
タイプ internet

技術仕様

分類 Payload
質量 575.00 kg
乾燥質量 530.00 kg
総質量 575.00 kg
長さ 0.30 m
直径 4.10 m
スパン 29.00 m
形状 Box + pan
製造者 SPXS
バスタイプ Starlink V2MO
フェーズステータス In Orbit
所有者/国 SPXS/US

Most Searched